Tokyo Downtown, Japan

7:38 AM JST on November 16, 2019 (GMT +0900)
Tokyo Downtown

Weather History for RJTD - September, 2019

Change the Weather History Date:

Tuesday, September 24, 2019

  Actual Average (WUND) Record (WUND)
Temperature  
Mean Temperature 80 °F -  
Max Temperature 87 °F 72 °F - (-1)
Min Temperature 72 °F 60 °F - (-1)
Cooling Degree Days 14    
Growing Degree Days 30 (Base 50)    
Moisture  
Dew Point 69 °F    
Average Humidity 69    
Maximum Humidity 93    
Minimum Humidity 42    
Precipitation  
Precipitation 0.04 in 0.22 in - ()
Sea Level Pressure  
Sea Level Pressure 29.85 in    
Wind  
Wind Speed 6 mph ()    
Max Wind Speed 12 mph    
Max Gust Speed -    
Visibility 13.9 miles    
Events Rain    
Averages and records for this station are not official NWS values.
T = Trace of Precipitation, MM = Missing Value Source: Averaged Metar Reports

Daily Weather History Graph

Daily Weather History Graph

Search for Another Location

Airport or City:

Astronomy

Sep. 24, 2019 Rise Set
Actual Time 5:29 AM JST 5:36 PM JST
Civil Twilight 5:04 AM JST 6:01 PM JST
Nautical Twilight 4:34 AM JST 6:31 PM JST
Astronomical Twilight 4:04 AM JST 7:01 PM JST
Moon No Moon Rise 2:37 PM JST (9/24)
Length of Visible Light 12h 57m
Length of Day
12h 06m
Waning Crescent, 28% of the Moon is Illuminated
Sep 24
Waning Crescent
Sep 29
New
Oct 6
First Quarter
Oct 14
Full
Oct 21
Last Quarter

Hourly Weather History & Observations

Time (JST) Temp. Dew Point Humidity Pressure Visibility Wind Dir Wind Speed Gust Speed Precip Events Conditions
12:00 AM 80 °F 70 °F 64% 29.73 in - SSW 11.5 mph - -  
1:00 AM 80 °F 71 °F 66% 29.74 in - SW 8.1 mph - -  
2:00 AM 76 °F 71 °F 79% 29.75 in - SSW 5.8 mph - -  
3:00 AM 76 °F 71 °F 79% 29.78 in 12 mi West 5.8 mph - -   Scattered Clouds
3:00 AM - - N/A% - - North - - N/A   Unknown
5:00 AM 74 °F 65 °F 65% 29.81 in - WNW 6.9 mph - -  
6:00 AM 73 °F 65 °F 70% 29.83 in 16 mi NW 4.6 mph - -   Scattered Clouds
7:00 AM 77 °F 66 °F 62% 29.86 in - NW 4.6 mph - -  
8:00 AM 80 °F 66 °F 54% 29.87 in - North 5.8 mph - -  
9:00 AM 83 °F 65 °F 45% 29.87 in 19 mi NW 5.8 mph - -   Scattered Clouds
10:00 AM 84 °F 67 °F 48% 29.86 in - NE 6.9 mph - -  
11:00 AM 83 °F 65 °F 46% 29.86 in - North 3.5 mph - -  
12:00 PM 85 °F 65 °F 42% 29.85 in 16 mi WNW 3.5 mph - -   Scattered Clouds
3:00 PM 76 °F 74 °F 93% 29.85 in 6 mi SE 5.8 mph - - Rain Light Rain Showers
4:00 PM 76 °F 73 °F 88% 29.84 in - WSW 3.5 mph - -  
6:00 PM 76 °F 72 °F 82% 29.87 in 16 mi WNW 5.8 mph - -   Partly Cloudy
6:00 PM - - N/A% - - North - - N/A   Unknown
7:00 PM 76 °F 71 °F 79% 29.90 in - NNE 6.9 mph - -  
8:00 PM 75 °F 70 °F 80% 29.92 in - NE 5.8 mph - -  
9:00 PM 75 °F 70 °F 81% 29.94 in 12 mi NE 5.8 mph - -   Partly Cloudy
10:00 PM 74 °F 70 °F 83% 29.96 in - ENE 9.2 mph - -  
11:00 PM 74 °F 69 °F 80% 29.96 in - NE 9.2 mph - -